Regional Weather Roundup
Issued by NWS

Home | Current Version | Previous Version | Graphics & Text | Print | Product List | Glossary On
Versions: 1 2 3 4 5 6 7 8 9 10 11 12 13 14 15 16 17 18 19 20 21 22 23 24 25 26 27 28
000
ASUS45 KBOI 231210
RWRID

IDAHO REGIONAL WEATHER ROUNDUP
NATIONAL WEATHER SERVICE BOISE ID
500 AM MST THU NOV 23 2017

NOTE: "FAIR" INDICATES FEW OR NO CLOUDS BELOW 12000 FEET
WITH NO SIGNIFICANT WEATHER AND/OR OBSTRUCTIONS TO VISIBILITY

IDZ012-014-231300-
SOUTHWEST IDAHO


CITY           SKY/WX    TMP DP  RH WIND       PRES   REMARKS
BOISE          CLOUDY    47  45  93 CALM      30.10F
CALDWELL       FOG       47  47 100 CALM      30.11F VSB 1/4
MOUNTAIN HOME  CLOUDY    51  51 100 SE14      30.12F
$$

IDZ016-017-231300-
SOUTHCENTRAL IDAHO


CITY           SKY/WX    TMP DP  RH WIND       PRES   REMARKS
BURLEY         MOCLDY    45  39  79 N6        30.17F
JEROME         MOCLDY    43  39  86 NE13      30.18F
TWIN FALLS     MOCLDY    47  41  80 VRB3      30.17F
$$

IDZ019>023-231300-
SOUTHEAST IDAHO


CITY           SKY/WX    TMP DP  RH WIND       PRES   REMARKS
IDAHO FALLS    CLOUDY    34  34 100 N6        30.26F FOG     WCI  29
POCATELLO      CLOUDY    34  34 100 CALM      30.23F FOG
REXBURG        CLOUDY    34  33  96 NE5       30.25F WCI  30
$$

IDZ006-010-011-018-031-032-231300-
CENTRAL IDAHO MOUNTAINS


CITY           SKY/WX    TMP DP  RH WIND       PRES   REMARKS
MCCALL         CLOUDY    37  36  96 CALM      30.12F
HAILEY         PTCLDY    37  34  87 NW12      30.26F WCI  30
STANLEY          N/A     30  29  96 N5        30.24F WCI  25
SALMON         FOG       38  37  97 SE3       30.17F VSB 1
CHALLIS        PTCLDY    35  33  92 CALM      30.18F
$$

IDZ002-004-006-007-026-231300-
NORTHERN IDAHO


CITY           SKY/WX    TMP DP  RH WIND       PRES   REMARKS
LEWISTON       CLOUDY    59  50  72 SE12      29.89F
LOWELL           N/A     45  45 100 N5        30.05F
COEUR D`ALENE  CLOUDY    53  50  89 S13       29.84F
MULLAN PASS    RAIN      42  41  96 S10G25    29.95F FOG
$$




USA.gov is the U.S. government's official web portal to all federal, state and local government web resources and services.